Location: Auckland
(36.8670°S, 174.7670°E)
Time: 09:14:21
(UTC+13:00)

Mayak - Pass Details

Date: 24 January 2019
Orbit: 582 x 604 km, 97.6° (Epoch: 21 February)

Event Time Altitude Azimuth Distance (km) Brightness Sun altitude
Exits shadow 22:46:25 21° 119° (ESE) 1,349 0.4 -21.5°
Drops below altitude 10° 22:49:14 10° 160° (SSE) 1,942 1.7 -21.9°
Sets 22:51:49 0° 176° (S) 2,856 2.9 -22.3°
